Regional Weather Roundup
Issued by NWS

Home | Current Version | Previous Version | Text Only | Print | Product List | Glossary On
Versions: 1 2 3 4 5 6 7 8 9 10 11 12 13 14 15 16 17 18 19 20 21 22 23 24 25 26 27 28 29 30 31 32 33 34 35 36 37 38 39 40 41 42 43 44 45 46 47 48 49 50
000
ASUS43 KTOP 290859
RWRKS

WEATHER ROUNDUP FOR KANSAS
NATIONAL WEATHER SERVICE GOODLAND KS
400 AM CDT FRI AUG 29 2014

NOTE:  "FAIR" INDICATES FEW OR NO CLOUDS BELOW 12,000 FEET WITH NO
SIGNIFICANT WEATHER AND/OR OBSTRUCTIONS TO VISIBILITY.

KSZ001>006-013>018-027>032-041>047-291000-
NORTHWEST KANSAS

CITY           SKY/WX    TMP DP  RH WIND       PRES   REMARKS
GOODLAND       CLEAR     56  54  93 W9        29.98S
HAYS           CLOUDY    64  55  72 SW8       29.89R
HILL CITY      CLOUDY    65  59  81 W12       29.86F
RUSSELL        CLOUDY    66  61  84 W7        29.86R
$$

KSZ061>065-074>080-084>089-291000-
SOUTHWEST KANSAS

CITY           SKY/WX    TMP DP  RH WIND       PRES   REMARKS
DODGE CITY     MOCLDY    65  59  81 SW7       29.92F
ELKHART          N/A     62  52  70 W6          N/A
GARDEN CITY    PTCLDY    59  57  93 SW5       29.95S
GREAT BEND     CLOUDY    66  61  82 S8        29.87F
LIBERAL        PTCLDY    64  55  72 W7        29.99F
$$

KSZ066>073-081>083-090>101-291000-
SOUTHEAST KANSAS

CITY           SKY/WX    TMP DP  RH WIND       PRES   REMARKS
CHANUTE        PTCLDY    71  62  73 SE8       29.85F
COFFEYVILLE    PTCLDY    71  63  75 E6        29.85F
HUTCHINSON     CLOUDY    68  63  84 W9        29.84F
NEWTON         CLOUDY    70  61  73 W8        29.88F
PARSONS        PTCLDY    72  63  73 CALM      29.86F
WICHITA INTL   CLOUDY    69  64  84 SE5       29.84F
WICHITA JABRA  CLOUDY    69  64  84 SW8       29.84F
WINFIELD       CLOUDY    70  68  93 CALM      29.88R
$$

KSZ007>012-019>026-033>040-048>060-102>105-291000-
NORTHEAST KANSAS

CITY           SKY/WX    TMP DP  RH WIND       PRES   REMARKS
CONCORDIA      CLOUDY    68  66  93 SW16G24   29.82F
EMPORIA        CLOUDY    71  62  73 W7        29.86R
LAWRENCE       CLEAR     71  63  75 SE6       29.84S
MANHATTAN      CLOUDY    72  64  76 SW5       29.83F
OLATHE IND     CLEAR     73  63  70 S8        29.86F
OLATHE EXE     CLEAR     71  63  75 SE5       29.85F
SALINA         CLOUDY    71  62  73 SW12      29.83F
TOPEKA BILLARD MOCLDY    73  65  75 SE8       29.82F
TOPEKA FORBES  MOCLDY    73  64  73 S8        29.82F
$$



USA.gov is the U.S. government's official web portal to all federal, state and local government web resources and services.